This is the latest recevied weather packets stored in our database for station/object K4IR. If no packets are shown the sender has not sent any weather packets the latest 10 day(s).
| Time | Temp. | Humidity | Pressure | Rain* | Wind** | Luminosity | Snow |
|---|---|---|---|---|---|---|---|
| 1787624907 | 23.89° C | 98% | 1015.4 hPa | 0 mm | - | 0 W/m² | - |
| 1787624302 | 23.89° C | 98% | 1015.5 hPa | 0 mm | - | 0 W/m² | - |
| 1787623698 | 23.89° C | 98% | 1014.9 hPa | 0 mm | - | 0 W/m² | - |
| 1787623096 | 23.89° C | 97% | 1014.9 hPa | 0 mm | - | 0 W/m² | - |
| 1787622495 | 23.89° C | 97% | 1014.9 hPa | 0 mm | - | 0 W/m² | - |
| 1787621895 | 23.89° C | 97% | 1014.7 hPa | 0 mm | - | 0 W/m² | - |
| 1787621292 | 23.89° C | 97% | 1014.9 hPa | 0 mm | - | 0 W/m² | - |
| 1787620689 | 23.89° C | 97% | 1014.7 hPa | 0 mm | - | 0 W/m² | - |
| 1787620086 | 24.44° C | 97% | 1014.5 hPa | 0 mm | - | 0 W/m² | - |
| 1787619481 | 23.89° C | 96% | 1014.6 hPa | 0 mm | - | 0 W/m² | - |
| 1787618875 | 24.44° C | 96% | 1014.2 hPa | 0 mm | - | 0 W/m² | - |
| 1787618275 | 24.44° C | 95% | 1013.9 hPa | 0 mm | - | 0 W/m² | - |
| 1787617670 | 24.44° C | 94% | 1013.4 hPa | 0 mm | - | 0 W/m² | - |
| 1787617070 | 24.44° C | 94% | 1013.3 hPa | 0 mm | - | 0 W/m² | - |
| 1787616465 | 24.44° C | 93% | 1013.7 hPa | 0 mm | - | 0 W/m² | - |
| 1787615863 | 25° C | 92% | 1013.8 hPa | 0 mm | - | 1 W/m² | - |
| 1787615259 | 25.56° C | 91% | 1013.8 hPa | 0 mm | - | 3 W/m² | - |
| 1787614657 | 25.56° C | 89% | 1013.5 hPa | 0 mm | - | 13 W/m² | - |
| 1787614057 | 25.56° C | 88% | 1013.6 hPa | 0 mm | - | 27 W/m² | - |
| 1787613452 | 26.67° C | 89% | 1013.7 hPa | 0 mm | - | 34 W/m² | - |
| 1787612851 | 26.67° C | 86% | 1013.8 hPa | 0 mm | - | 28 W/m² | - |
| 1787612249 | 27.22° C | 88% | 1013.4 hPa | 0 mm | - | 20 W/m² | - |
| 1787611646 | 27.22° C | 88% | 1013.4 hPa | 0 mm | - | 46 W/m² | - |
| 1787611043 | 27.22° C | 87% | 1013.2 hPa | 0 mm | - | 15 W/m² | - |
| 1787610440 | 27.22° C | 88% | 1013.1 hPa | 0 mm | - | 20 W/m² | - |
* Rain latest hour (hover to see other rain measurements)
** Current wind speed in m/s (hover to see current wind gust speed)